When you browse on this site, cookies collect data to enhance your experience and personalize the content and advertising you see.
Visit our Privacy Policy to learn more. By continuing to use the site, you agree to this use of cookies and data.
  • In Lithuania
  • List of Countries
  • For 7 days
  • Water Temperature
  • Satellite Maps
  • Weather Map
  • Weather Widgets
  • user-avatar
    Login

    Hourly Weather Golye Bugry

    Today, 17 January, Thursday

    Time Temperature Precipitation Wind Pressure Humidity
    00:00 -5°C° 0 mm 2 mps 759 mmHg 91%
    01:00 -6°C° 0 mm 2 mps 759 mmHg 91%
    02:00 -4°C° 0 mm 1 mps 759 mmHg 91%
    03:00 -6°C° 0 mm 0 mps 760 mmHg 90%
    04:00 -6°C° 0 mm 0 mps 760 mmHg 90%
    05:00 -6°C° 0 mm 0 mps 761 mmHg 90%
    06:00 -6°C° 0 mm 1 mps 761 mmHg 90%
    07:00 -6°C° 0 mm 1 mps 762 mmHg 90%
    08:00 -6°C° 0 mm 1 mps 762 mmHg 89%
    09:00 -6°C° 0 mm 1 mps 762 mmHg 89%
    10:00 -4°C° 0 mm 1 mps 763 mmHg 87%
    11:00 -3°C° 0 mm 1 mps 763 mmHg 84%
    12:00 -1°C° 0 mm 1 mps 763 mmHg 82%
    13:00 -2°C° 0 mm 0 mps 763 mmHg 83%
    14:00 -2°C° 0 mm 0 mps 764 mmHg 83%
    15:00 -1°C° 0 mm 0 mps 764 mmHg 84%
    16:00 -2°C° 0 mm 0 mps 764 mmHg 85%
    17:00 -2°C° 0 mm 1 mps 765 mmHg 86%
    18:00 -3°C° 0 mm 1 mps 765 mmHg 87%
    19:00 -3°C° 0 mm 1 mps 765 mmHg 87%
    20:00 -5°C° 0 mm 2 mps 765 mmHg 87%
    21:00 -5°C° 0 mm 2 mps 765 mmHg 86%
    22:00 -5°C° 0 mm 2 mps 765 mmHg 86%
    23:00 -5°C° 0 mm 2 mps 765 mmHg 85%

    Tomorrow, 18 January, Friday

    Time Temperature Precipitation Wind Pressure Humidity
    00:00 -5°C° 0 mm 2 mps 765 mmHg 84%
    01:00 -5°C° 0 mm 2 mps 765 mmHg 84%
    02:00 -5°C° 0 mm 2 mps 765 mmHg 84%
    03:00 -5°C° 0 mm 2 mps 765 mmHg 83%
    04:00 -5°C° 0 mm 2 mps 765 mmHg 83%
    05:00 -6°C° 0 mm 3 mps 765 mmHg 83%
    06:00 -6°C° 0 mm 3 mps 765 mmHg 83%
    07:00 -5°C° 0 mm 3 mps 765 mmHg 84%
    08:00 -5°C° 0 mm 3 mps 765 mmHg 84%
    09:00 -5°C° 0 mm 3 mps 765 mmHg 84%
    10:00 -2°C° 0 mm 3 mps 765 mmHg 87%
    11:00 -2°C° 0 mm 4 mps 765 mmHg 90%
    12:00 -1°C° 0 mm 4 mps 765 mmHg 93%
    13:00 0°C° 0 mm 4 mps 765 mmHg 94%
    14:00 0°C° 0 mm 4 mps 764 mmHg 95%
    15:00 +1°C° 0 mm 3 mps 764 mmHg 96%
    16:00 0°C° 0 mm 3 mps 764 mmHg 94%
    17:00 0°C° 0 mm 3 mps 764 mmHg 92%
    18:00 -1°C° 0 mm 3 mps 764 mmHg 90%
    19:00 0°C° 0 mm 3 mps 764 mmHg 90%
    20:00 -1°C° 0 mm 4 mps 764 mmHg 90%
    21:00 -1°C° 0 mm 4 mps 764 mmHg 91%
    22:00 -2°C° 0 mm 4 mps 764 mmHg 91%
    23:00 -2°C° 0 mm 4 mps 764 mmHg 91%

    Day after tomorrow, 19 January, Saturday

    Time Temperature Precipitation Wind Pressure Humidity
    00:00 -2°C° 0 mm 4 mps 764 mmHg 91%
    01:00 -2°C° 0 mm 4 mps 764 mmHg 91%
    02:00 -2°C° 0 mm 4 mps 764 mmHg 91%
    03:00 -2°C° 0 mm 4 mps 764 mmHg 91%
    04:00 -2°C° 0 mm 4 mps 764 mmHg 91%
    05:00 -3°C° 0 mm 4 mps 763 mmHg 91%
    06:00 -2°C° 0 mm 3 mps 763 mmHg 92%
    07:00 -2°C° 0 mm 4 mps 763 mmHg 92%
    08:00 -2°C° 0 mm 4 mps 763 mmHg 93%
    09:00 -2°C° 0 mm 4 mps 763 mmHg 93%
    10:00 -1°C° 0 mm 4 mps 763 mmHg 94%
    11:00 -1°C° 0 mm 4 mps 763 mmHg 95%
    12:00 0°C° 0 mm 4 mps 763 mmHg 96%
    13:00 0°C° 0 mm 4 mps 763 mmHg 97%
    14:00 +1°C° 0 mm 3 mps 762 mmHg 97%
    15:00 +2°C° 0 mm 3 mps 762 mmHg 97%
    16:00 +1°C° 0 mm 3 mps 762 mmHg 96%
    17:00 +1°C° 0 mm 3 mps 762 mmHg 96%
    18:00 +1°C° 0 mm 3 mps 762 mmHg 95%
    19:00 +1°C° 0.1 mm 3 mps 762 mmHg 96%
    20:00 +1°C° 0.1 mm 3 mps 762 mmHg 97%
    21:00 +2°C° 0.1 mm 2 mps 763 mmHg 98%
    22:00 0°C° 0 mm 3 mps 763 mmHg 96%
    23:00 0°C° 0 mm 3 mps 763 mmHg 95%

    20 January, Sunday

    Time Temperature Precipitation Wind Pressure Humidity
    00:00 -1°C° 0 mm 3 mps 764 mmHg 94%
    01:00 -1°C° 0 mm 3 mps 764 mmHg 93%
    02:00 -1°C° 0 mm 3 mps 764 mmHg 92%
    03:00 -3°C° 0 mm 4 mps 765 mmHg 90%
    04:00 -4°C° 0 mm 4 mps 765 mmHg 89%
    05:00 -4°C° 0 mm 4 mps 766 mmHg 87%
    06:00 -5°C° 0 mm 4 mps 766 mmHg 85%
    07:00 -7°C° 0 mm 4 mps 766 mmHg 84%
    08:00 -7°C° 0 mm 4 mps 767 mmHg 82%
    09:00 -7°C° 0 mm 3 mps 768 mmHg 81%
    10:00 -6°C° 0 mm 3 mps 768 mmHg 79%
    11:00 -6°C° 0 mm 3 mps 768 mmHg 78%
    12:00 -5°C° 0 mm 3 mps 768 mmHg 77%
    13:00 -5°C° 0 mm 3 mps 768 mmHg 77%
    14:00 -5°C° 0 mm 3 mps 768 mmHg 77%
    15:00 -4°C° 0 mm 3 mps 768 mmHg 78%
    16:00 -5°C° 0 mm 3 mps 768 mmHg 80%
    17:00 -6°C° 0 mm 3 mps 768 mmHg 82%
    18:00 -6°C° 0 mm 3 mps 768 mmHg 84%
    19:00 -6°C° 0 mm 3 mps 768 mmHg 84%
    20:00 -7°C° 0 mm 3 mps 768 mmHg 83%
    21:00 -7°C° 0 mm 3 mps 768 mmHg 83%
    22:00 -7°C° 0 mm 3 mps 767 mmHg 83%
    23:00 -6°C° 0 mm 3 mps 767 mmHg 83%

    21 January, Monday

    Time Temperature Precipitation Wind Pressure Humidity
    00:00 -6°C° 0 mm 3 mps 767 mmHg 83%
    01:00 -6°C° 0 mm 3 mps 767 mmHg 83%
    02:00 -6°C° 0 mm 3 mps 766 mmHg 84%
    03:00 -6°C° 0 mm 3 mps 766 mmHg 84%
    04:00 -5°C° 0 mm 3 mps 766 mmHg 85%
    05:00 -4°C° 0 mm 3 mps 765 mmHg 87%
    06:00 -4°C° 0 mm 3 mps 765 mmHg 88%
    07:00 -2°C° 0 mm 3 mps 764 mmHg 90%
    08:00 -2°C° 0 mm 3 mps 764 mmHg 92%
    09:00 -1°C° 0 mm 3 mps 764 mmHg 94%
    10:00 0°C° 0 mm 3 mps 763 mmHg 94%
    11:00 0°C° 0 mm 4 mps 763 mmHg 93%
    12:00 +1°C° 0 mm 4 mps 762 mmHg 93%
    13:00 +1°C° 0 mm 4 mps 762 mmHg 92%
    14:00 +1°C° 0 mm 4 mps 761 mmHg 90%
    15:00 +3°C° 0 mm 3 mps 760 mmHg 89%
    16:00 +1°C° 0.1 mm 4 mps 760 mmHg 88%
    17:00 +1°C° 0.1 mm 4 mps 759 mmHg 87%
    18:00 +1°C° 0.1 mm 4 mps 759 mmHg 86%
    19:00 +1°C° 0.1 mm 4 mps 758 mmHg 84%
    20:00 +1°C° 0.1 mm 4 mps 758 mmHg 83%
    21:00 +1°C° 0.1 mm 5 mps 758 mmHg 82%
    22:00 +1°C° 0.9 mm 5 mps 758 mmHg 85%
    23:00 +1°C° 0.9 mm 5 mps 758 mmHg 88%

    22 January, Tuesday

    Time Temperature Precipitation Wind Pressure Humidity
    00:00 +1°C° 0.9 mm 6 mps 758 mmHg 92%
    01:00 -1°C° 0.5 mm 6 mps 758 mmHg 90%
    02:00 -3°C° 0.5 mm 7 mps 759 mmHg 89%
    03:00 -4°C° 0.5 mm 7 mps 759 mmHg 88%
    04:00 -6°C° 0.1 mm 7 mps 760 mmHg 87%
    05:00 -6°C° 0.1 mm 6 mps 761 mmHg 85%
    06:00 -6°C° 0.1 mm 6 mps 762 mmHg 84%
    07:00 -7°C° 0 mm 5 mps 764 mmHg 81%
    08:00 -8°C° 0 mm 5 mps 765 mmHg 79%
    09:00 -10°C° 0 mm 5 mps 766 mmHg 77%
    10:00 -8°C° 0 mm 4 mps 767 mmHg 75%
    11:00 -8°C° 0 mm 4 mps 767 mmHg 72%
    12:00 -7°C° 0 mm 3 mps 768 mmHg 70%
    13:00 -7°C° 0 mm 3 mps 768 mmHg 68%
    14:00 -7°C° 0 mm 3 mps 768 mmHg 66%
    15:00 -6°C° 0 mm 3 mps 768 mmHg 65%
    16:00 -7°C° 0 mm 3 mps 768 mmHg 67%
    17:00 -7°C° 0 mm 3 mps 768 mmHg 70%
    18:00 -8°C° 0 mm 3 mps 769 mmHg 73%
    19:00 -8°C° 0 mm 3 mps 769 mmHg 73%
    20:00 -8°C° 0 mm 3 mps 769 mmHg 73%
    21:00 -8°C° 0 mm 3 mps 769 mmHg 73%
    22:00 -8°C° 0 mm 3 mps 769 mmHg 73%
    23:00 -8°C° 0 mm 3 mps 769 mmHg 73%
    Show more